Location: Erdweis
(48.5167°N, 15.3500°E)
Time: 17:01:12
(UTC+00:00)

Cosmos 1898 Rocket - Pass Details

Date: 18 September 2020
Orbit: 753 x 784 km, 74.0° (Epoch: 28 October)

Event Time Altitude Azimuth Distance (km) Brightness Sun altitude
Rises 18:24:56 0° 217° (SW) 3,195 7.0 -13.9°
Reaches altitude 10° 18:27:21 10° 222° (SW) 2,274 6.2 -14.3°
Maximum altitude 18:32:21 51° 298° (WNW) 950 4.4 -15.1°
Drops below altitude 10° 18:37:25 10° 15° (NNE) 2,294 6.0 -15.9°
Sets 18:39:52 0° 20° (NNE) 3,227 6.8 -16.3°
